Location: Foulognes
(49.1413°N, 0.8183°W)
Time: 21:30:10
(UTC+00:00)

CZ-2D R/B - Pass Details

Date: 21 October 2019
Orbit: 522 x 539 km, 97.4° (Epoch: 22 November)

Event Time Altitude Azimuth Distance (km) Brightness Sun altitude
Rises 17:52:40 0° 136° (SE) 2,671 6.5 -8.9°
Reaches altitude 10° 17:55:00 10° 124° (ESE) 1,788 5.5 -9.3°
Maximum altitude 17:58:14 26° 66° (ENE) 1,078 4.3 -9.8°
Drops below altitude 10° 18:01:31 10° 9° (N) 1,807 5.8 -10.3°
Sets 18:03:52 0° 357° (N) 2,706 6.8 -10.7°
